Location: Saluda
(35.2377°N, 82.3468°W)
Time: 20:42:38
(UTC+00:00)

Vanguard 3 - Pass Details

Date: 08 October 2022
Orbit: 509 x 3255 km, 33.3° (Epoch: 01 December)

Event Time Altitude Azimuth Distance (km) Brightness Sun altitude
Rises 18:13:12 0° 270° (W) 3,520 10.6 46.6°
Reaches altitude 10° 18:15:46 10° 257° (WSW) 2,864 10.4 46.4°
Maximum altitude 18:21:35 27° 202° (SSW) 2,489 11.3 46.0°
Drops below altitude 10° 18:30:29 10° 152° (SSE) 4,514 11.4 45.2°
Sets 18:35:50 0° 142° (SE) 6,025 11.8 44.7°
